Погода в Гусевке

Россия / Тамбовская область     52°55′12″N   42°29′08″E
темп.,
°C
ветер,
м/с
пор.,
м/с
влажн.,
%
обл.,
%
осадки,
мм/ч
давл.,
гПа
погр.,
м
6 мая, чт
чт600:00+8ююз49814 0.0 1015157
03:00+7ююз4118337 0.0 1015190
06:00+8ююз410805 0.0 1015230
09:00+13ююз61064100 0.0 1015609
12:00+15ююз81054100 0.0 10151518
15:00+16ююз71052100 0.0 10141809
18:00+14ю61163100 0.0 1013631
21:00+12ю61371100 0.0 1013373
7 мая, пт
пт700:00+11ю61469100 0.0 1012348
03:00+11ю51271100 0.0 1012359
06:00+10зюз2486100 0.1 1013161
09:00+8ссз3788100 0.3 1015356
12:00+13ссз3562100 0.5 10161291
15:00+14сз244988 0.6 10161699
18:00+14ссз34547 0.0 1016218
21:00+9в22604 0.0 101816
8 мая, сб
сб800:00+7юв35807 0.0 101882
03:00+7юв479198 0.0 1018114
06:00+7юв49855 0.0 1016233
09:00+12юв71063100 0.0 1014603
12:00+16ююв71272100 0.0 10121017
15:00+19ю8146379 1.1 10101725
18:00+15ю61373100 0.4 1009559
21:00+13ююз71490100 1.7 1010778
9 мая, вс
вс900:00+12зюз5896100 1.7 1010689
03:00+9сз4992100 1.9 1012574
06:00+7сз5790100 0.0 1014499
09:00+6ссз5785100 0.1 1015572
12:00+7с4780100 0.3 1017707
15:00+7ссв5887100 1.8 1017861
18:00+6ссв61191100 2.3 1018843
21:00+6ссв71293100 4.9 1020725
10 мая, пн
пн1000:00+6ссв81490100 1.0 1021634
03:00+6св71592100 2.2 1021541
06:00+6ссв81694100 0.7 1022581
09:00+7св71592100 0.9 1024605
12:00+8св71493100 0.3 1025576
15:00+8св71393100 0.4 1025474
18:00+8св61293100 0.0 1026388
21:00+8ссв6129585 0.0 1027298